Flag for Peru Weather past 2 weeks in Arequipa, Arequipa, Peru

Now
48 °F

Clear.


Feels Like: 45 °F
Forecast: 44 / 67 °F
Wind: 7 mph from Northeast

Location: Arequipa Airport

Current Time: Jul 7, 2015 at 12:16:40 AM

Latest Report: Jul 7, 2015 at 12:00 AM


Visibility: 10 mi

Pressure: 30.33 "Hg (22.83 "Hg at 2345m altitude)

Humidity: 27%

Dew point: 16 °F

Location of ArequipaLocation

Historic Weather in Arequipa — Graph

°F

Arequipa temperature yesterday

Maximum temperature yesterday: 63 °F (at 12:00 PM)
Minimum temperature yesterday: 43 °F (at 4:00 AM)
Average temperature yesterday: 52 °F

Past Weeks' High & Low Weather Summary

 TemperatureHumidityPressure
High77 °F (Jun 25, 12:00 PM)62% (Jul 5, 8:00 PM)30.39 "Hg (Jul 5, 8:00 PM)
Low43 °F (Jul 6, 4:00 AM)7% (Jun 30, 10:00 AM)30.18 "Hg (Jul 3, 4:00 PM)
Average59 °F23%30.30 "Hg
* Reported Jun 21 11:00 PM — Jul 6 11:00 PM, Arequipa, Weather by CustomWeather, © 2015

Note: Actual official high and low records may vary slightly from our data, if they occured in-between our weather recording intervals... More about our weather records

Advertising

Arequipa weather history for previous 24 hours

 ConditionsComfort  
Time TempWeatherWind HumidityBarometerVisibility
11:00 PM
Mon, Jul 6
46 °FClear.6 mph29%30.36 "Hg10 mi
10:00 PM48 °FClear.3 mph32%30.36 "Hg10 mi
9:00 PM48 °FClear.7 mph32%30.36 "Hg10 mi
8:00 PM48 °FClear.8 mph32%30.36 "Hg10 mi
7:00 PM50 °FClear.3 mph30%30.36 "Hg10 mi
6:00 PM54 °FClear.5 mph35%30.36 "Hg10 mi
5:00 PM59 °FPassing clouds.9 mph20%30.33 "HgN/A
4:00 PM61 °FSunny.5 mph16%30.33 "Hg10 mi
3:00 PM63 °FPassing clouds.9 mph17%30.33 "HgN/A
2:00 PM63 °FPassing clouds.10 mph17%30.33 "HgN/A
1:00 PM63 °FSunny.7 mph19%30.33 "Hg10 mi
12:00 PM63 °FPassing clouds.8 mph19%30.33 "HgN/A
11:00 AM61 °FPassing clouds.8 mph20%30.36 "HgN/A
10:00 AM59 °FPassing clouds.7 mph23%30.36 "HgN/A
9:00 AM57 °FPassing clouds.7 mph25%30.33 "HgN/A
8:00 AM55 °FSunny.3 mph28%30.30 "Hg10 mi
7:00 AM45 °FSunny.5 mph37%30.30 "Hg10 mi
6:00 AM43 °FClear.5 mph42%30.30 "Hg10 mi
5:00 AM45 °FClear.6 mph39%30.27 "Hg10 mi
4:00 AM43 °FClear.5 mph53%30.27 "Hg10 mi
3:00 AM45 °FClear.5 mph53%30.27 "Hg10 mi
2:00 AM46 °FClear.7 mph53%30.30 "Hg10 mi
1:00 AM46 °FClear.6 mph57%30.30 "Hg10 mi
12:00 AM46 °FClear.5 mph57%30.33 "Hg10 mi
Weather by CustomWeather, © 2015

See weather overviewHow to use our weather pages